• In United Kingdom
  • List of Countries
  • For 7 days
  • Water Temperature
  • Satellite Maps
  • Weather Map
  • Weather Widgets
  • user-avatar
    Login

    Hourly Weather Pasto

    Today, 17 December, Sunday

    Time Temperature Precipitation Wind Pressure Humidity
    00:00 +10°C° 0 mm 1 mps 547 mmHg 90%
    01:00 +8°C° 0 mm 2 mps 547 mmHg 87%
    02:00 +8°C° 0 mm 2 mps 547 mmHg 86%
    03:00 +8°C° 0 mm 2 mps 546 mmHg 86%
    04:00 +8°C° 0 mm 2 mps 546 mmHg 86%
    05:00 +9°C° 0 mm 2 mps 547 mmHg 84%
    06:00 +9°C° 0 mm 2 mps 547 mmHg 81%
    07:00 +10°C° 0 mm 2 mps 548 mmHg 79%
    08:00 +13°C° 0 mm 2 mps 549 mmHg 71%
    09:00 +15°C° 0 mm 2 mps 550 mmHg 63%
    10:00 +17°C° 0 mm 2 mps 552 mmHg 55%
    11:00 +18°C° 0.1 mm 2 mps 552 mmHg 54%
    12:00 +18°C° 0.1 mm 2 mps 551 mmHg 54%
    13:00 +19°C° 0.1 mm 3 mps 551 mmHg 53%
    14:00 +18°C° 0.2 mm 3 mps 550 mmHg 56%
    15:00 +17°C° 0.2 mm 2 mps 550 mmHg 59%
    16:00 +17°C° 0.2 mm 2 mps 549 mmHg 62%
    17:00 +15°C° 0.2 mm 2 mps 548 mmHg 72%
    18:00 +13°C° 0.2 mm 1 mps 547 mmHg 82%
    19:00 +11°C° 0.2 mm 1 mps 547 mmHg 92%
    20:00 +10°C° 0.1 mm 1 mps 547 mmHg 92%
    21:00 +10°C° 0.1 mm 1 mps 547 mmHg 92%
    22:00 +10°C° 0.1 mm 1 mps 547 mmHg 92%
    23:00 +9°C° 0 mm 1 mps 547 mmHg 91%

    Tomorrow, 18 December, Monday

    Time Temperature Precipitation Wind Pressure Humidity
    00:00 +8°C° 0 mm 2 mps 547 mmHg 89%
    01:00 +8°C° 0 mm 2 mps 546 mmHg 88%
    02:00 +8°C° 0 mm 2 mps 546 mmHg 86%
    03:00 +7°C° 0 mm 2 mps 546 mmHg 84%
    04:00 +7°C° 0 mm 2 mps 546 mmHg 82%
    05:00 +8°C° 0 mm 2 mps 546 mmHg 80%
    06:00 +9°C° 0 mm 2 mps 547 mmHg 78%
    07:00 +9°C° 0 mm 2 mps 548 mmHg 76%
    08:00 +13°C° 0 mm 2 mps 549 mmHg 68%
    09:00 +15°C° 0 mm 2 mps 551 mmHg 60%
    10:00 +17°C° 0 mm 3 mps 552 mmHg 52%
    11:00 +18°C° 0.1 mm 3 mps 552 mmHg 52%
    12:00 +18°C° 0.1 mm 3 mps 552 mmHg 51%
    13:00 +19°C° 0.1 mm 3 mps 551 mmHg 50%
    14:00 +18°C° 0.2 mm 3 mps 551 mmHg 54%
    15:00 +17°C° 0.2 mm 3 mps 550 mmHg 57%
    16:00 +16°C° 0.2 mm 2 mps 549 mmHg 61%
    17:00 +14°C° 0.1 mm 2 mps 548 mmHg 70%
    18:00 +12°C° 0.1 mm 2 mps 548 mmHg 79%
    19:00 +10°C° 0.1 mm 1 mps 547 mmHg 89%
    20:00 +10°C° 0.1 mm 1 mps 547 mmHg 88%
    21:00 +10°C° 0.1 mm 1 mps 548 mmHg 88%
    22:00 +8°C° 0.1 mm 2 mps 548 mmHg 87%
    23:00 +8°C° 0 mm 2 mps 548 mmHg 86%

    Day after tomorrow, 19 December, Tuesday

    Time Temperature Precipitation Wind Pressure Humidity
    00:00 +8°C° 0 mm 2 mps 547 mmHg 85%
    01:00 +8°C° 0 mm 2 mps 547 mmHg 84%
    02:00 +8°C° 0 mm 2 mps 547 mmHg 84%
    03:00 +8°C° 0 mm 2 mps 547 mmHg 83%
    04:00 +7°C° 0 mm 2 mps 546 mmHg 83%
    05:00 +8°C° 0 mm 2 mps 547 mmHg 81%
    06:00 +8°C° 0 mm 2 mps 547 mmHg 79%
    07:00 +9°C° 0 mm 2 mps 548 mmHg 78%
    08:00 +13°C° 0 mm 2 mps 550 mmHg 67%
    09:00 +15°C° 0 mm 2 mps 551 mmHg 56%
    10:00 +18°C° 0 mm 2 mps 553 mmHg 45%
    11:00 +19°C° 0 mm 2 mps 552 mmHg 44%
    12:00 +19°C° 0 mm 3 mps 552 mmHg 43%
    13:00 +20°C° 0 mm 3 mps 552 mmHg 42%
    14:00 +19°C° 0.2 mm 3 mps 551 mmHg 46%
    15:00 +18°C° 0.2 mm 2 mps 550 mmHg 51%
    16:00 +17°C° 0.2 mm 2 mps 549 mmHg 55%
    17:00 +15°C° 0.3 mm 2 mps 548 mmHg 65%
    18:00 +12°C° 0.3 mm 1 mps 547 mmHg 75%
    19:00 +10°C° 0.3 mm 1 mps 547 mmHg 85%
    20:00 +10°C° 0.1 mm 1 mps 547 mmHg 85%
    21:00 +9°C° 0.1 mm 1 mps 547 mmHg 85%
    22:00 +8°C° 0.1 mm 2 mps 548 mmHg 85%
    23:00 +8°C° 0 mm 2 mps 547 mmHg 84%

    20 December, Wednesday

    Time Temperature Precipitation Wind Pressure Humidity
    00:00 +8°C° 0 mm 2 mps 547 mmHg 82%
    01:00 +7°C° 0 mm 2 mps 547 mmHg 81%
    02:00 +7°C° 0 mm 2 mps 546 mmHg 81%
    03:00 +7°C° 0 mm 2 mps 546 mmHg 80%
    04:00 +7°C° 0 mm 2 mps 546 mmHg 80%
    05:00 +9°C° 0 mm 1 mps 546 mmHg 78%
    06:00 +9°C° 0 mm 1 mps 547 mmHg 76%
    07:00 +10°C° 0 mm 1 mps 548 mmHg 74%
    08:00 +12°C° 0 mm 2 mps 549 mmHg 65%
    09:00 +15°C° 0 mm 2 mps 550 mmHg 56%
    10:00 +17°C° 0 mm 2 mps 552 mmHg 48%
    11:00 +18°C° 0 mm 2 mps 552 mmHg 47%
    12:00 +19°C° 0 mm 2 mps 552 mmHg 46%
    13:00 +19°C° 0 mm 2 mps 551 mmHg 46%
    14:00 +18°C° 0.2 mm 2 mps 550 mmHg 51%
    15:00 +17°C° 0.2 mm 2 mps 549 mmHg 55%
    16:00 +16°C° 0.2 mm 2 mps 548 mmHg 60%
    17:00 +14°C° 0.2 mm 2 mps 548 mmHg 69%
    18:00 +13°C° 0.2 mm 1 mps 547 mmHg 78%
    19:00 +11°C° 0.2 mm 1 mps 546 mmHg 88%
    20:00 +10°C° 0.1 mm 1 mps 547 mmHg 88%
    21:00 +10°C° 0.1 mm 1 mps 547 mmHg 88%
    22:00 +10°C° 0.1 mm 1 mps 547 mmHg 89%
    23:00 +10°C° 0.1 mm 1 mps 547 mmHg 89%

    21 December, Thursday

    Time Temperature Precipitation Wind Pressure Humidity
    00:00 +10°C° 0.1 mm 1 mps 547 mmHg 89%
    01:00 +9°C° 0.1 mm 1 mps 546 mmHg 89%
    02:00 +9°C° 0 mm 1 mps 546 mmHg 89%
    03:00 +9°C° 0 mm 1 mps 546 mmHg 88%
    04:00 +9°C° 0 mm 1 mps 545 mmHg 88%
    05:00 +9°C° 0 mm 1 mps 546 mmHg 85%
    06:00 +10°C° 0 mm 1 mps 547 mmHg 82%
    07:00 +10°C° 0 mm 1 mps 547 mmHg 80%
    08:00 +13°C° 0 mm 1 mps 549 mmHg 71%
    09:00 +15°C° 0 mm 1 mps 550 mmHg 62%
    10:00 +17°C° 0 mm 2 mps 552 mmHg 53%
    11:00 +18°C° 0 mm 2 mps 551 mmHg 53%
    12:00 +18°C° 0 mm 2 mps 550 mmHg 54%
    13:00 +18°C° 0 mm 2 mps 550 mmHg 54%
    14:00 +17°C° 0.3 mm 2 mps 549 mmHg 58%
    15:00 +17°C° 0.3 mm 2 mps 548 mmHg 62%
    16:00 +16°C° 0.3 mm 2 mps 548 mmHg 66%
    17:00 +14°C° 0.4 mm 1 mps 547 mmHg 74%
    18:00 +13°C° 0.4 mm 1 mps 547 mmHg 82%
    19:00 +11°C° 0.4 mm 1 mps 547 mmHg 91%
    20:00 +10°C° 0.2 mm 0 mps 547 mmHg 92%
    21:00 +10°C° 0.2 mm 0 mps 547 mmHg 92%
    22:00 +10°C° 0.2 mm 0 mps 548 mmHg 93%
    23:00 +10°C° 0.1 mm 0 mps 547 mmHg 93%

    22 December, Friday

    Time Temperature Precipitation Wind Pressure Humidity
    00:00 +10°C° 0.1 mm 0 mps 547 mmHg 93%
    01:00 +9°C° 0.1 mm 0 mps 547 mmHg 94%
    02:00 +9°C° 0.1 mm 0 mps 547 mmHg 94%
    03:00 +9°C° 0.1 mm 0 mps 546 mmHg 93%
    04:00 +9°C° 0.1 mm 0 mps 546 mmHg 93%
    05:00 +9°C° 0 mm 0 mps 547 mmHg 92%
    06:00 +10°C° 0 mm 0 mps 547 mmHg 90%
    07:00 +10°C° 0 mm 0 mps 548 mmHg 88%
    08:00 +13°C° 0 mm 1 mps 549 mmHg 80%
    09:00 +15°C° 0 mm 1 mps 550 mmHg 71%
    10:00 +17°C° 0 mm 2 mps 551 mmHg 62%
    11:00 +16°C° 0.1 mm 2 mps 551 mmHg 63%
    12:00 +16°C° 0.1 mm 2 mps 550 mmHg 65%
    13:00 +16°C° 0.1 mm 2 mps 549 mmHg 67%
    14:00 +15°C° 0.2 mm 2 mps 549 mmHg 69%
    15:00 +15°C° 0.2 mm 2 mps 548 mmHg 71%
    16:00 +15°C° 0.2 mm 2 mps 548 mmHg 73%
    17:00 +14°C° 0.1 mm 1 mps 547 mmHg 79%
    18:00 +13°C° 0.1 mm 1 mps 547 mmHg 86%
    19:00 +10°C° 0.1 mm 0 mps 547 mmHg 92%
    20:00 +10°C° 0.1 mm 0 mps 548 mmHg 93%
    21:00 +10°C° 0.1 mm 0 mps 548 mmHg 93%
    22:00 +10°C° 0.1 mm 0 mps 548 mmHg 94%
    23:00 +10°C° 0.1 mm 0 mps 548 mmHg 94%
    Show more